Weather History for Honolulu, HI

Change the Weather History Date:

Monday, July 15, 2013

  Actual Average Record
Temperature  
Mean Temperature 81 °F 81 °F  
Max Temperature 86 °F 88 °F 94 °F (1995)
Min Temperature 75 °F 74 °F 70 °F (1958)
Degree Days  
Heating Degree Days 0 0  
Month to date heating degree days 0 0  
Since 1 June heating degree days 0 0  
Since 1 July heating degree days 0 0  
Cooling Degree Days 16 16  
Month to date cooling degree days 222 240  
Year to date cooling degree days 2091 2198  
Since 1 June cooling degree days 631 696  
Growing Degree Days 30 (Base 50)    
Moisture  
Dew Point 64 °F    
Average Humidity 60    
Maximum Humidity 74    
Minimum Humidity 45    
Precipitation  
Precipitation T in 0.01 in 0.14 in (1998)
Month to date precipitation 0.03 0.20  
Year to date precipitation 8.66 8.03  
Snow  
Snow 0.00 in - - ()
Month to date snowfall 0.0  
Since 1 June snowfall 0.0  
Since 1 July snowfall 0.0  
Snow Depth 0.00 in    
Sea Level Pressure  
Sea Level Pressure 29.98 in    
Wind  
Wind Speed 7 mph (ENE)    
Max Wind Speed 16 mph    
Max Gust Speed 22 mph    
Visibility 10 miles    
Events      
T = Trace of Precipitation, MM = Missing Value Source: NWS Daily Summary

Daily Weather History Graph

Daily Weather History Graph

Search for Another Location

Airport:

Trip Planner

Search our weather history database for the weather conditions in past years. The results will help you decide how hot, cold, wet, or windy it might be!

Date:

Astronomy

Jul. 15, 2013 Rise Set
Actual Time 5:58 AM HST 7:16 PM HST
Civil Twilight 5:34 AM HST 7:41 PM HST
Nautical Twilight 5:05 AM HST 8:10 PM HST
Astronomical Twilight 4:35 AM HST 8:39 PM HST
Moon 12:27 PM HST (7/15) No Moon Set
Length of Visible Light 14h 06m
Length of Day
13h 18m
Waxing Crescent, 48% of the Moon is Illuminated
Jul 15
Waxing Crescent
Jul 15
First Quarter
Jul 22
Full
Jul 29
Last Quarter
Aug 6
New

Hourly Weather History & Observations

Time (HST) Temp. Heat Index Dew Point Humidity Pressure Visibility Wind Dir Wind Speed Gust Speed Precip Events Conditions
12:53 AM 75.9 °F - 64.0 °F 67% 29.99 in 10.0 mi Calm Calm - N/A   Scattered Clouds
1:53 AM 77.0 °F - 64.0 °F 64% 29.97 in 10.0 mi NE 3.5 mph - N/A   Mostly Cloudy
2:53 AM 75.9 °F - 64.9 °F 69% 29.96 in 10.0 mi ENE 5.8 mph - N/A   Scattered Clouds
3:53 AM 75.9 °F - 64.9 °F 69% 29.96 in 10.0 mi ENE 3.5 mph - N/A   Scattered Clouds
4:53 AM 75.9 °F - 66.0 °F 71% 29.97 in 10.0 mi NNE 3.5 mph - N/A   Scattered Clouds
5:53 AM 75.0 °F - 66.0 °F 73% 29.97 in 10.0 mi Calm Calm - N/A   Scattered Clouds
6:53 AM 75.9 °F - 64.0 °F 67% 29.99 in 10.0 mi ENE 5.8 mph - N/A   Scattered Clouds
7:53 AM 78.1 °F - 64.0 °F 62% 30.00 in 10.0 mi NE 6.9 mph - N/A   Scattered Clouds
8:53 AM 81.0 °F 82.2 °F 63.0 °F 54% 30.00 in 10.0 mi ENE 9.2 mph - N/A   Scattered Clouds
9:53 AM 82.0 °F 83.4 °F 64.0 °F 54% 30.00 in 10.0 mi ENE 9.2 mph - N/A   Scattered Clouds
10:53 AM 84.0 °F 84.9 °F 63.0 °F 49% 29.99 in 10.0 mi East 10.4 mph - N/A   Scattered Clouds
11:53 AM 86.0 °F 86.3 °F 62.1 °F 44% 29.99 in 10.0 mi East 11.5 mph 19.6 mph N/A   Mostly Cloudy
12:53 PM 82.0 °F 83.4 °F 64.0 °F 54% 29.98 in 10.0 mi ESE 13.8 mph - N/A   Mostly Cloudy
1:53 PM 80.1 °F 82.1 °F 66.0 °F 62% 29.97 in 10.0 mi SE 15.0 mph - 0.00 in   Mostly Cloudy
2:53 PM 82.0 °F 83.1 °F 63.0 °F 52% 29.96 in 10.0 mi ENE 9.2 mph 17.3 mph N/A   Mostly Cloudy
3:53 PM 84.9 °F 85.9 °F 63.0 °F 48% 29.95 in 10.0 mi ENE 12.7 mph - N/A   Mostly Cloudy
4:53 PM 84.0 °F 84.9 °F 63.0 °F 49% 29.95 in 10.0 mi ENE 16.1 mph - N/A   Mostly Cloudy
5:53 PM 82.0 °F 83.4 °F 64.0 °F 54% 29.96 in 10.0 mi ENE 13.8 mph - N/A   Scattered Clouds
6:53 PM 80.1 °F 82.1 °F 66.0 °F 62% 29.98 in 10.0 mi East 13.8 mph - N/A   Scattered Clouds
7:53 PM 78.1 °F - 66.0 °F 66% 30.00 in 10.0 mi East 11.5 mph - N/A   Scattered Clouds
8:53 PM 78.1 °F - 64.9 °F 64% 30.01 in 10.0 mi ENE 11.5 mph - N/A   Scattered Clouds
9:53 PM 78.1 °F - 64.9 °F 64% 30.02 in 10.0 mi ENE 9.2 mph - N/A   Partly Cloudy
10:53 PM 77.0 °F - 64.9 °F 66% 30.03 in 10.0 mi NE 10.4 mph - N/A   Partly Cloudy
11:53 PM 77.0 °F - 64.9 °F 66% 30.02 in 10.0 mi ENE 8.1 mph - N/A   Partly Cloudy